Content
SEND FEEDBACK

Daily
Averages
Monthly
Summary
United States of America

LITTLE ELM, TEXAS


Home > North America > United States > Texas
Elevation: 550 feet     Latitude: 33 10N     Longitude: 096 56W

WEATHER
 
SELECT A DAY
Number of Records: 176,592;   Date Range: 7/1/96 - 7/7/14
 
SHARE

PRINT THIS DATA

[ ← Previous Day ]
WEATHER ALMANAC - JANUARY 31, 2013
[ Next Day → ]
[ °C ]   °F
Weather ElementAverageHighLow
Temperature48 °F66.9 °F (3:53 pm)30 °F (6:53 am)
Dewpoint24.6 °F28.9 °F (9:53 pm)21 °F (2:53 pm)
Humidity45.5 %75 % (6:53 am)18 % (2:53 pm)
Barometer30.17 in30.35 in (11:53 pm)30.07 in (3:53 pm)
Wind Speed9.8 mph23 mph (9:53 pm)
Wind Gust28.8 mph (9:53 pm)
Weather ElementAverage
Visibility10 mi
Wind DirectionSSE (162.6 °)

Weather ElementTotal
Precipitation---
Heating Degree Days16.6 (Base 65)
Averaged from 23 records on January 31, 2013
WEATHER CONDITIONS BREAKOUT
WIND DIRECTION BREAKOUT
WEATHER BY HOUR - JANUARY 31, 2013
[ °C ]   °F
Local TimeTemperatureDewpointHumidityBarometerVisibilityWind DirectionWind SpeedGust SpeedPrecipitationEventsConditions
1:53 AM33.1 °F24.1 °F70 %30.13 in10.0 miSouth (180°)5.8 mphClear
2:53 AM34.0 °F23.0 °F64 %30.13 in10.0 miCalmClear
3:53 AM34.0 °F24.1 °F67 %30.13 in10.0 miSSW (200°)4.6 mphClear
4:53 AM33.1 °F24.1 °F70 %30.13 in10.0 miSouth (190°)8.1 mphClear
5:53 AM35.1 °F21.9 °F59 %30.13 in10.0 miCalmClear
6:53 AM30.0 °F23.0 °F75 %30.14 in10.0 miCalmClear
7:53 AM32.0 °F23.0 °F69 %30.17 in10.0 miSE (140°)3.5 mphClear
8:53 AM39.0 °F25.0 °F57 %30.16 in10.0 miSSE (150°)4.6 mphClear
9:53 AM48.0 °F28.0 °F46 %30.17 in10.0 miSouth (190°)5.8 mphClear
10:53 AM55.9 °F25.0 °F30 %30.18 in10.0 miSSW (200°)11.5 mphClear
11:53 AM60.1 °F24.1 °F25 %30.17 in10.0 miSouth (190°)11.5 mphClear
12:53 PM63.0 °F21.9 °F21 %30.13 in10.0 miSSW (210°)17.3 mphClear
1:53 PM64.0 °F23.0 °F21 %30.11 in10.0 miWSW (240°)16.1 mph23.0 mphClear
2:53 PM66.0 °F21.0 °F18 %30.09 in10.0 miSW (220°)17.3 mph21.9 mphClear
3:53 PM66.9 °F21.9 °F18 %30.07 in10.0 miWest (260°)16.1 mph23.0 mphClear
4:53 PM64.9 °F21.9 °F19 %30.09 in10.0 miWest (260°)11.5 mphClear
5:53 PM61.0 °F25.0 °F25 %30.13 in10.0 miWNW (300°)4.6 mphClear
6:53 PM55.9 °F26.1 °F32 %30.17 in10.0 miNNW (340°)5.8 mphClear
7:53 PM51.1 °F28.0 °F41 %30.21 in10.0 miNorth (350°)6.9 mphClear
8:53 PM51.1 °F28.0 °F41 %30.25 in10.0 miNorth (10°)18.4 mphClear
9:53 PM45.0 °F28.9 °F53 %30.29 in10.0 miNNE (20°)23.0 mph28.8 mphClear
10:53 PM42.1 °F28.9 °F60 %30.31 in10.0 miNE (40°)19.6 mph26.5 mphClear
11:53 PM37.9 °F27.0 °F65 %30.35 in10.0 miNE (50°)12.7 mphClear
Hourly data recorded from KDTO, located miles away from Little Elm, Texas







STORIES FROM OUR PARTNERS